CDT,Max TemperatureF,Mean TemperatureF,Min TemperatureF,Max Dew PointF,MeanDew PointF,Min DewpointF,Max Humidity, Mean Humidity, Min Humidity, Max Sea Level PressureIn, Mean Sea Level PressureIn, Min Sea Level PressureIn, Max VisibilityMiles, Mean VisibilityMiles, Min VisibilityMiles, Max Wind SpeedMPH, Mean Wind SpeedMPH, Max Gust SpeedMPH,PrecipitationIn, CloudCover, Events, WindDirDegrees
2013-9-1,78,68,57,63,58,54,94,72,47,30.06,29.96,29.86,10,10,10,16,6,23,0.00,1,Thunderstorm,342
2013-9-2,77,62,48,55,50,45,94,70,34,30.14,30.09,30.05,10,10,10,8,2,,0.00,0,,358
2013-9-3,82,66,50,68,57,46,94,75,50,30.10,30.06,30.02,10,9,0,10,2,16,0.00,0,Fog,181
2013-9-4,87,73,59,70,63,57,94,75,40,30.15,30.11,30.04,10,8,2,7,1,,0.00,0,Rain,172
2013-9-5,82,75,68,70,65,63,88,75,54,30.19,30.15,30.10,10,10,7,10,3,,0.01,3,Rain-Thunderstorm,165
2013-9-6,91,76,62,72,65,59,94,72,41,30.10,29.99,29.89,10,10,7,15,6,21,0.00,0,,170
2013-9-7,89,78,68,70,68,64,94,76,49,30.00,29.94,29.89,10,8,2,14,3,18,0.00,0,Rain-Thunderstorm,44
2013-9-8,80,74,68,70,67,64,88,81,65,30.00,29.94,29.85,10,8,5,12,5,17,0.00,5,Rain-Thunderstorm,95
2013-9-9,91,80,68,70,66,61,94,68,36,29.87,29.77,29.72,10,8,2,15,7,22,0.00,2,Thunderstorm,199
2013-9-10,78,70,62,66,64,61,94,78,54,30.06,29.97,29.87,10,10,1,8,1,,0.00,1,Rain,301
2013-9-11,86,73,60,64,59,52,94,67,33,30.16,30.11,30.05,10,9,2,10,2,,0.00,1,,327
2013-9-12,77,64,51,52,47,41,82,53,28,30.28,30.23,30.16,10,10,10,14,5,18,0.00,1,,10
2013-9-13,73,58,44,50,45,41,93,65,33,30.27,30.20,30.08,10,10,1,8,2,,0.00,0,,152
2013-9-14,68,56,44,55,49,41,93,75,49,30.08,29.96,29.83,10,10,7,16,4,22,0.01,4,Rain,180
2013-9-15,64,54,44,57,52,43,93,78,64,30.32,30.09,29.81,10,10,5,16,6,24,0.00,6,Rain,33
2013-9-16,71,56,41,50,46,39,100,73,41,30.38,30.30,30.21,10,9,0,12,3,17,0.00,3,Fog,139
2013-9-17,64,58,53,63,56,48,94,89,82,30.21,30.03,29.87,10,7,1,14,8,21,0.00,7,Rain,155
2013-9-18,89,76,64,68,66,63,94,74,46,29.86,29.74,29.66,10,7,3,16,10,23,0.00,4,,173
2013-9-19,77,65,51,66,58,45,94,74,36,29.98,29.79,29.64,10,10,2,24,6,34,0.26,3,Rain-Thunderstorm,312
2013-9-20,62,52,41,48,43,37,93,72,39,30.03,29.99,29.97,10,10,10,16,9,24,0.00,3,,302
2013-9-21,73,53,33,46,39,32,100,63,27,30.03,29.96,29.87,10,9,1,8,1,,0.00,0,,156
2013-9-22,84,68,51,52,48,43,88,55,25,29.88,29.82,29.75,10,10,10,21,8,30,0.00,0,,161
2013-9-23,78,66,53,52,48,43,82,55,28,29.85,29.80,29.76,10,10,10,21,11,30,0.00,0,,158
2013-9-24,77,65,53,54,51,50,88,67,44,29.94,29.90,29.85,10,10,4,8,4,,0.00,3,,75
2013-9-25,78,62,46,55,50,45,94,67,36,29.94,29.87,29.76,10,9,1,15,4,25,0.00,0,,148
2013-9-26,87,74,60,59,56,52,94,61,29,29.81,29.77,29.72,10,10,7,23,12,33,0.00,0,,157
2013-9-27,82,75,68,63,59,55,83,61,42,29.81,29.77,29.70,10,10,10,23,12,34,0.10,1,Rain-Thunderstorm,164
2013-9-28,73,58,42,59,47,36,94,71,37,29.99,29.84,29.66,10,10,2,22,12,30,0.30,4,Rain,260
2013-9-29,80,58,37,45,40,36,93,57,20,29.99,29.88,29.76,10,10,7,17,5,26,0.00,0,,193
2013-9-30,82,66,51,50,45,43,76,49,25,29.76,29.67,29.60,10,10,10,16,9,22,0.00,0,,188